Ardmore, OK

1:11 AM CDT on April 26, 2018 (GMT -0500)
Ardmore Municipal

Weather History for KADM - November, 2011

Change the Weather History Date:

Wednesday, November 23, 2011

  Actual Average Record
Temperature  
Mean Temperature 50 °F -  
Max Temperature 66 °F 59 °F 80 °F (2005)
Min Temperature 33 °F 40 °F 26 °F (2007)
Degree Days  
Heating Degree Days 16    
Moisture  
Dew Point 40 °F    
Average Humidity 91    
Maximum Humidity 100    
Minimum Humidity 46    
Precipitation  
Precipitation 0.00 in - - ()
Sea Level Pressure  
Sea Level Pressure 30.25 in    
Wind  
Wind Speed 0 mph (SSW)    
Max Wind Speed 5 mph    
Max Gust Speed -    
Visibility 4 miles    
Events Fog    
Averages and records for this station are not official NWS values.
T = Trace of Precipitation, MM = Missing Value Source: NWS Daily Summary

Daily Weather History Graph

Daily Weather History Graph

Search for Another Location

Airport or City:

Astronomy

Nov. 23, 2011 Rise Set
Actual Time 7:08 AM CST 5:20 PM CST
Civil Twilight 6:41 AM CST 5:47 PM CST
Nautical Twilight 6:10 AM CST 6:17 PM CST
Astronomical Twilight 5:40 AM CST 6:47 PM CST
Moon 5:16 AM CST (11/23) 4:01 PM CST (11/23)
Length of Visible Light 11h 05m
Length of Day
10h 11m
Waning Crescent, 3% of the Moon is Illuminated
Nov 23
Waning Crescent
Nov 25
New
Dec 2
First Quarter
Dec 10
Full
Dec 17
Last Quarter

Hourly Weather History & Observations

Time (CST) Temp. Dew Point Humidity Pressure Visibility Wind Dir Wind Speed Gust Speed Precip Events Conditions
12:15 AM 44.6 °F 42.8 °F 93% 30.23 in 7.0 mi Calm Calm - N/A   Clear
12:35 AM 42.8 °F 41.0 °F 93% 30.24 in 7.0 mi Calm Calm - N/A   Clear
12:55 AM 42.8 °F 41.0 °F 93% 30.23 in 4.0 mi Calm Calm - N/A   Clear
1:15 AM 41.0 °F 41.0 °F 100% 30.23 in 4.0 mi Calm Calm - N/A   Clear
1:35 AM 41.0 °F 41.0 °F 100% 30.23 in 2.5 mi Calm Calm - N/A   Mist
1:55 AM 41.0 °F 41.0 °F 100% 30.23 in - Calm Calm - N/A   Unknown
2:55 AM 37.4 °F 35.6 °F 93% 30.23 in 0.5 mi Calm Calm - N/A Fog Fog
3:15 AM 37.4 °F 37.4 °F 100% 30.23 in 0.2 mi Calm Calm - N/A Fog Fog
3:35 AM 37.4 °F 37.4 °F 100% 30.23 in 0.2 mi Calm Calm - N/A Fog Fog
3:55 AM 37.4 °F 37.4 °F 100% 30.22 in 0.2 mi Calm Calm - N/A Fog Fog
4:15 AM 37.4 °F 37.4 °F 100% 30.23 in 0.2 mi Calm Calm - N/A Fog Fog
4:35 AM 37.4 °F 35.6 °F 93% 30.23 in 1.0 mi Calm Calm - N/A   Overcast
5:15 AM 35.6 °F 35.6 °F 100% 30.24 in 0.5 mi Calm Calm - N/A Fog Fog
5:35 AM 35.6 °F 35.6 °F 100% 30.25 in 0.2 mi Calm Calm - N/A Fog Fog
6:55 AM 35.6 °F 35.6 °F 100% 30.27 in 0.5 mi Calm Calm - N/A Fog Fog
7:55 AM 33.8 °F 33.8 °F 100% 30.28 in 0.2 mi Calm Calm - N/A Fog Fog
8:55 AM 41.0 °F 41.0 °F 100% 30.30 in 10.0 mi Calm Calm - N/A   Mostly Cloudy
9:55 AM 42.8 °F 42.8 °F 100% 30.31 in 0.2 mi Calm Calm - N/A Fog Fog
11:55 AM 59.0 °F 48.2 °F 67% 30.28 in 10.0 mi Calm Calm - N/A   Clear
12:55 PM 64.4 °F 46.4 °F 52% 30.26 in 10.0 mi Calm Calm - N/A   Clear
2:55 PM 66.2 °F 46.4 °F 49% 30.23 in 10.0 mi SSW 4.6 mph - N/A   Clear
3:55 PM 66.2 °F 44.6 °F 46% 30.23 in 10.0 mi Calm Calm - N/A   Clear
4:55 PM 62.6 °F 44.6 °F 52% 30.23 in 10.0 mi South 3.5 mph - N/A   Clear
6:55 PM 50.0 °F 44.6 °F 82% 30.24 in 10.0 mi Calm Calm - N/A   Clear
7:55 PM 46.4 °F 44.6 °F 93% 30.25 in 10.0 mi Calm Calm - N/A   Clear
8:55 PM 42.8 °F 42.8 °F 100% 30.26 in 10.0 mi Calm Calm - N/A   Clear
9:15 PM 42.8 °F 41.0 °F 93% 30.26 in 2.5 mi Calm Calm - N/A   Clear
9:35 PM 41.0 °F 41.0 °F 100% 30.26 in 0.5 mi Calm Calm - N/A Fog Fog
9:55 PM 42.8 °F 41.0 °F 93% 30.27 in - Calm Calm - N/A   Unknown
10:15 PM 41.0 °F 41.0 °F 100% 30.27 in 10.0 mi Calm Calm - N/A   Scattered Clouds
10:35 PM 41.0 °F 39.2 °F 93% 30.27 in 1.0 mi Calm Calm - N/A   Mist
10:55 PM 39.2 °F 39.2 °F 100% 30.27 in 0.8 mi Calm Calm - N/A   Mist
11:15 PM 39.2 °F 37.4 °F 93% 30.27 in 3.0 mi Calm Calm - N/A   Clear
11:35 PM 37.4 °F 37.4 °F 100% 30.26 in 1.5 mi Calm Calm - N/A   Mist
11:55 PM 39.2 °F 37.4 °F 93% 30.26 in 10.0 mi Calm Calm - N/A   Clear